sat.trackr.live / text

‹ back to catalog

STARLINK-36555

NORAD 67497 · 2026-012E

PAYLOAD ACTIVE UNKNOWN

§ Identity

Operator
Country
US
Launch date
2026-01-18
Launch site
AFETR
Launch vehicle
Mass (kg)
RCS (m²)

Purposes: comms

External: N2YO · Heavens-Above · Gunter

§ Orbital elements

Epoch: 2026-05-24T16:43:35.594400Z

Period
94.27 min
Inclination
42.9994°
Eccentricity
0.0001544
Mean motion
15.27585598 rev/d
Perigee alt
482.0 km
Apogee alt
484.1 km
Semi-major
6,861.2 km
B*
4.3078e-4
RAAN
245.3794°
Arg perigee
262.8751°
Mean anomaly
97.1925°
Rev number
1,938

§ Raw data

STARLINK-365551 67497U 26012E   26144.69693975  .00011613  00000+0  43078-3 0  99912 67497  42.9994 245.3794 0001544 262.8751  97.1925 15.27585598 19380

JSON: /api/v1/satellites/67497 · /tle

For live sub-satellite position, see the globe view (requires WebGL).

§ Visibility from observer

Set your observer location to see the next 7 days of passes ≥ 10°. The values pass through the URL so the page stays shareable.

No JS? Fill the form by hand. The geolocation button needs JavaScript.